KG5RRC-13 Weather Reports


Display with metric or nautical units.
time (UTC)temp
F
wind
direction
speed
MPH
gust
MPH
rain 1hr
in
rain 24hr
in
rain mn
in
humidity
%
barometer
mb
20220518122103 72 65 0.0 1.0 0.00 0.00 0.00 85 1006.0
20220518121601 72 115 0.0 0.0 0.00 0.00 0.00 85 1005.6
20220518121100 72 144 0.0 0.0 0.00 0.00 0.00 85 1005.6
20220518120558 72 140 0.0 0.0 0.00 0.00 0.00 85 1005.2
20220518120057 72 213 0.0 1.0 0.00 0.00 0.00 85 1004.9
20220518115555 72 141 0.0 0.0 0.00 0.00 0.00 85 1004.8
20220518115053 72 159 0.0 1.0 0.00 0.00 0.00 85 1004.6
20220518114552 72 164 0.0 1.0 0.00 0.00 0.00 85 1004.5
20220518114050 72 219 1.0 2.0 0.00 0.00 0.00 85 1004.3
20220518113549 72 143 1.0 1.0 0.00 0.00 0.00 84 1004.1
20220518113048 72 158 0.0 1.0 0.00 0.00 0.00 84 1004.1
20220518112546 72 165 1.0 3.0 0.00 0.00 0.00 84 1003.9
20220518112045 71 165 0.0 0.0 0.00 0.00 0.00 84 1003.8
20220518111544 71 178 0.0 1.0 0.00 0.00 0.00 83 1003.8
20220518111043 72 150 0.0 0.0 0.00 0.00 0.00 83 1003.9
20220518110541 72 159 0.0 0.0 0.00 0.00 0.00 83 1003.9
20220518110039 72 167 1.0 1.0 0.00 0.00 0.00 83 1003.8
20220518105538 72 185 0.0 0.0 0.00 0.00 0.00 83 1003.8
20220518105037 72 176 0.0 0.0 0.00 0.00 0.00 82 1003.8
20220518104536 72 189 0.0 1.0 0.00 0.00 0.00 82 1003.9
20220518104034 72 181 0.0 0.0 0.00 0.00 0.00 82 1003.7
20220518103532 72 196 0.0 1.0 0.00 0.00 0.00 81 1003.5
20220518103030 72 184 0.0 1.0 0.00 0.00 0.00 81 1003.5
20220518102529 72 160 2.0 3.0 0.00 0.00 0.00 82 1003.5
20220518102026 72 219 1.0 1.0 0.00 0.00 0.00 82 1003.3
20220518101526 72 154 1.0 1.0 0.00 0.00 0.00 82 1003.5
20220518101026 72 139 1.0 2.0 0.00 0.00 0.00 82 1003.4
20220518100525 72 167 0.0 1.0 0.00 0.00 0.00 82 1003.4
20220518100024 72 133 1.0 1.0 0.00 0.00 0.00 83 1003.3
20220518095523 72 171 0.0 1.0 0.00 0.00 0.00 83 1003.5
20220518095022 72 189 0.0 1.0 0.00 0.00 0.00 83 1003.3
20220518094520 72 180 2.0 2.0 0.00 0.00 0.00 83 1003.6
20220518094018 72 165 1.0 1.0 0.00 0.00 0.00 83 1003.4
20220518093518 72 166 0.0 1.0 0.00 0.00 0.00 84 1003.4
20220518093016 72 190 1.0 2.0 0.00 0.00 0.00 84 1003.7
20220518092516 72 192 1.0 2.0 0.00 0.00 0.00 84 1003.7
20220518092014 72 131 0.0 1.0 0.00 0.00 0.00 85 1003.8
20220518091513 72 169 1.0 1.0 0.00 0.00 0.00 84 1003.9
20220518091011 72 167 0.0 0.0 0.00 0.00 0.00 84 1003.8
20220518090510 73 168 1.0 1.0 0.00 0.00 0.00 84 1004.2
20220518090009 73 178 1.0 1.0 0.00 0.00 0.00 84 1004.1
20220518085507 73 167 0.0 0.0 0.00 0.00 0.00 84 1004.0
20220518085007 73 169 1.0 1.0 0.00 0.00 0.00 84 1004.0
20220518084507 72 170 0.0 1.0 0.00 0.00 0.00 84 1004.0
20220518084005 72 172 1.0 1.0 0.00 0.00 0.00 85 1003.8
20220518083505 72 179 0.0 0.0 0.00 0.00 0.00 85 1004.1
20220518083004 72 163 0.0 0.0 0.00 0.00 0.00 86 1004.1
20220518082503 72 164 0.0 0.0 0.00 0.00 0.00 86 1004.3
20220518082002 72 163 0.0 0.0 0.00 0.00 0.00 86 1004.4
20220518081500 72 163 0.0 0.0 0.00 0.00 0.00 85 1004.2
20220518080959 72 165 2.0 2.0 0.00 0.00 0.00 85 1004.4
20220518080458 72 124 0.0 0.0 0.00 0.00 0.00 85 1004.7
20220518075957 73 91 1.0 1.0 0.00 0.00 0.00 85 1004.6
20220518075457 73 149 0.0 0.0 0.00 0.00 0.00 85 1004.5
20220518074955 73 157 0.0 0.0 0.00 0.00 0.00 84 1004.8
20220518074454 73 157 0.0 0.0 0.00 0.00 0.00 83 1004.5
20220518073953 74 157 0.0 0.0 0.00 0.00 0.00 83 1004.3
20220518073452 74 182 0.0 0.0 0.00 0.00 0.00 83 1004.2
20220518072948 74 153 0.0 0.0 0.00 0.00 0.00 83 1004.3
20220518072446 74 162 0.0 0.0 0.00 0.00 0.00 82 1003.9
20220518071945 74 158 0.0 0.0 0.00 0.00 0.00 82 1004.0
20220518071444 75 183 0.0 0.0 0.00 0.00 0.00 82 1003.8
20220518070942 75 188 1.0 2.0 0.00 0.00 0.00 81 1003.5
20220518070442 75 179 0.0 1.0 0.00 0.00 0.00 81 1003.5
20220518065940 75 174 0.0 1.0 0.00 0.00 0.00 81 1003.6
20220518065439 75 179 0.0 0.0 0.00 0.00 0.00 80 1003.2
20220518064937 75 143 1.0 1.0 0.00 0.00 0.00 81 1003.5
20220518064437 75 172 1.0 1.0 0.00 0.00 0.00 80 1003.7
20220518063935 75 156 0.0 1.0 0.00 0.00 0.00 80 1003.9
20220518063433 76 237 0.0 1.0 0.00 0.00 0.00 80 1003.9
20220518062932 75 198 2.0 2.0 0.00 0.00 0.00 79 1003.9
20220518062432 76 158 0.0 1.0 0.00 0.00 0.00 79 1003.9
20220518061930 76 157 1.0 1.0 0.00 0.00 0.00 79 1004.1
20220518061429 76 165 1.0 1.0 0.00 0.00 0.00 79 1004.2
20220518060928 76 149 2.0 2.0 0.00 0.00 0.00 78 1004.2
20220518060426 76 196 1.0 1.0 0.00 0.00 0.00 78 1004.0
20220518055926 76 176 1.0 1.0 0.00 0.00 0.00 78 1004.2
20220518055426 76 154 1.0 2.0 0.00 0.00 0.00 78 1004.1
20220518054925 77 162 0.0 1.0 0.00 0.00 0.00 77 1004.2
20220518054423 76 184 0.0 1.0 0.00 0.00 0.00 77 1004.3
20220518053923 77 226 2.0 2.0 0.00 0.00 0.00 76 1004.4
20220518053422 77 127 1.0 1.0 0.00 0.00 0.00 76 1004.3
20220518052920 77 149 2.0 2.0 0.00 0.00 0.00 76 1004.5
20220518052420 76 147 1.0 2.0 0.00 0.00 0.00 77 1004.5
20220518051919 76 140 1.0 1.0 0.00 0.00 0.00 76 1004.5
20220518051418 76 186 0.0 1.0 0.00 0.00 0.00 76 1004.6
20220518050917 77 180 2.0 3.0 0.00 0.00 0.00 76 1004.7
20220518050418 77 177 0.0 1.0 0.00 0.00 0.00 75 1004.7
20220518045916 77 151 1.0 2.0 0.00 0.00 0.00 75 1004.7
20220518045416 77 188 0.0 1.0 0.00 0.00 0.00 75 1004.8
20220518044915 77 176 0.0 0.0 0.00 0.00 0.00 74 1004.7
20220518044414 77 200 1.0 1.0 0.00 0.00 0.00 74 1004.9
20220518043912 77 196 1.0 1.0 0.00 0.00 0.00 73 1005.0
20220518043412 77 177 1.0 1.0 0.00 0.00 0.00 73 1005.0
20220518042911 77 163 1.0 1.0 0.00 0.00 0.00 73 1005.1
20220518042410 77 166 0.0 0.0 0.00 0.00 0.00 72 1005.3
20220518041909 77 153 2.0 2.0 0.00 0.00 0.00 72 1005.2
20220518041408 78 166 0.0 1.0 0.00 0.00 0.00 72 1005.5
20220518040907 78 176 0.0 0.0 0.00 0.00 0.00 71 1005.2
20220518040406 78 202 0.0 1.0 0.00 0.00 0.00 71 1005.3
20220518035904 78 180 0.0 0.0 0.00 0.00 0.00 70 1005.0
20220518035404 78 142 0.0 1.0 0.00 0.00 0.00 70 1005.1
20220518034903 78 182 1.0 1.0 0.00 0.00 0.00 69 1005.2
20220518034403 78 201 1.0 1.0 0.00 0.00 0.00 69 1005.0
20220518033902 78 178 0.0 0.0 0.00 0.00 0.00 68 1005.0
20220518033402 78 165 1.0 1.0 0.00 0.00 0.00 68 1005.0
20220518032858 79 187 0.0 0.0 0.00 0.00 0.00 68 1004.5
20220518032358 79 184 0.0 0.0 0.00 0.00 0.00 68 1004.7
20220518031855 79 186 1.0 1.0 0.00 0.00 0.00 67 1004.5
20220518031355 79 191 1.0 1.0 0.00 0.00 0.00 67 1004.5
20220518030853 79 187 1.0 1.0 0.00 0.00 0.00 67 1004.7
20220518030354 79 163 1.0 2.0 0.00 0.00 0.00 67 1004.6
20220518025852 79 173 1.0 2.0 0.00 0.00 0.00 67 1004.2
20220518025350 79 126 1.0 1.0 0.00 0.00 0.00 67 1004.3
20220518024850 80 175 0.0 0.0 0.00 0.00 0.00 67 1004.1
20220518024349 80 165 1.0 1.0 0.00 0.00 0.00 67 1004.0
20220518023848 80 150 1.0 1.0 0.00 0.00 0.00 68 1004.0
20220518023347 80 199 1.0 1.0 0.00 0.00 0.00 68 1004.0
20220518022846 80 201 2.0 2.0 0.00 0.00 0.00 67 1003.7
20220518022345 80 114 1.0 1.0 0.00 0.00 0.00 68 1003.6
20220518021846 80 192 1.0 2.0 0.00 0.00 0.00 67 1003.9
20220518021344 80 171 0.0 0.0 0.00 0.00 0.00 69 1004.1
20220518020844 80 163 1.0 1.0 0.00 0.00 0.00 68 1003.9
20220518020343 80 188 0.0 1.0 0.00 0.00 0.00 68 1003.9
20220518015841 80 164 2.0 3.0 0.00 0.00 0.00 68 1003.8
20220518015339 81 187 1.0 1.0 0.00 0.00 0.00 67 1003.7
20220518014839 81 146 1.0 1.0 0.00 0.00 0.00 67 1003.7
20220518014338 81 194 1.0 1.0 0.00 0.00 0.00 66 1003.6
20220518013838 81 170 2.0 3.0 0.00 0.00 0.00 65 1003.8
20220518013338 81 145 3.0 3.0 0.00 0.00 0.00 65 1003.6
20220518012837 81 251 2.0 2.0 0.00 0.00 0.00 65 1003.6
20220518012336 82 195 0.0 1.0 0.00 0.00 0.00 65 1003.8
20220518011835 82 167 2.0 3.0 0.00 0.00 0.00 65 1003.7
20220518011334 82 145 4.0 5.0 0.00 0.00 0.00 65 1003.6
20220518010832 82 121 1.0 2.0 0.00 0.00 0.00 66 1003.3
20220518010331 83 184 1.0 1.0 0.00 0.00 0.00 66 1003.5
20220518005830 83 198 0.0 1.0 0.00 0.00 0.00 65 1003.7
20220518005328 83 160 3.0 5.0 0.00 0.00 0.00 65 1003.8
20220518004826 83 143 0.0 1.0 0.00 0.00 0.00 65 1003.7
20220518004325 83 181 0.0 0.0 0.00 0.00 0.00 65 1003.6
20220518003825 83 215 1.0 2.0 0.00 0.00 0.00 65 1003.8
20220518003324 83 216 0.0 1.0 0.00 0.00 0.00 65 1003.7
20220518002821 84 150 1.0 1.0 0.00 0.00 0.00 64 1003.7
20220518002319 84 158 2.0 3.0 0.00 0.00 0.00 64 1003.7
20220518001820 84 152 1.0 1.0 0.00 0.00 0.00 63 1003.6
20220518001320 85 238 3.0 3.0 0.00 0.00 0.00 63 1004.0
20220518000818 85 236 1.0 1.0 0.00 0.00 0.00 63 1003.9
20220518000317 85 172 1.0 1.0 0.00 0.00 0.00 64 1004.0
20220517235817 85 136 1.0 2.0 0.00 0.00 0.00 64 1003.9
20220517235316 85 197 2.0 2.0 0.00 0.00 0.00 63 1004.2
20220517234815 85 166 1.0 1.0 0.00 0.00 0.00 62 1004.0
20220517234313 85 150 3.0 3.0 0.00 0.00 0.00 60 1004.1
20220517233812 85 207 0.0 1.0 0.00 0.00 0.00 58 1004.2
20220517233311 85 202 0.0 0.0 0.00 0.00 0.00 56 1004.2
20220517232811 85 143 1.0 1.0 0.00 0.00 0.00 55 1004.0
20220517232309 86 163 1.0 2.0 0.00 0.00 0.00 54 1004.1
20220517231808 86 234 1.0 2.0 0.00 0.00 0.00 54 1004.1
20220517231307 86 189 2.0 2.0 0.00 0.00 0.00 58 1004.3
20220517230806 86 88 1.0 1.0 0.00 0.00 0.00 60 1004.3
20220517230305 86 149 1.0 1.0 0.00 0.00 0.00 58 1004.1
20220517225804 86 200 2.0 2.0 0.00 0.00 0.00 58 1004.3
20220517225301 86 223 1.0 1.0 0.00 0.00 0.00 59 1004.0
20220517224759 86 187 1.0 1.0 0.00 0.00 0.00 56 1004.2
20220517224257 87 184 0.0 1.0 0.00 0.00 0.00 55 1004.1
20220517223757 87 256 1.0 1.0 0.00 0.00 0.00 54 1004.2
20220517223256 87 245 1.0 1.0 0.00 0.00 0.00 51 1004.2
20220517222754 88 120 2.0 3.0 0.00 0.00 0.00 52 1004.0
20220517222254 88 179 2.0 2.0 0.00 0.00 0.00 52 1004.4
20220517221752 88 258 1.0 1.0 0.00 0.00 0.00 52 1004.2
20220517221252 88 167 2.0 3.0 0.00 0.00 0.00 51 1004.3
20220517220751 87 169 3.0 5.0 0.00 0.00 0.00 52 1004.4
20220517220249 88 204 0.0 1.0 0.00 0.00 0.00 54 1004.4
20220517215749 88 167 2.0 2.0 0.00 0.00 0.00 54 1004.2
20220517215247 88 169 2.0 3.0 0.00 0.00 0.00 50 1004.5
20220517214748 88 149 2.0 3.0 0.00 0.00 0.00 52 1004.5
20220517214247 87 184 2.0 2.0 0.00 0.00 0.00 55 1004.6
20220517213745 87 184 2.0 3.0 0.00 0.00 0.00 55 1004.7
20220517213244 89 139 1.0 2.0 0.00 0.00 0.00 54 1004.6
20220517212742 89 207 1.0 2.0 0.00 0.00 0.00 57 1004.9
20220517212243 88 97 2.0 2.0 0.00 0.00 0.00 56 1004.9
20220517211741 89 175 1.0 2.0 0.00 0.00 0.00 55 1005.1
20220517211240 89 175 3.0 3.0 0.00 0.00 0.00 55 1005.0
20220517210739 88 175 2.0 3.0 0.00 0.00 0.00 56 1005.1
20220517210238 88 209 2.0 2.0 0.00 0.00 0.00 54 1005.4
20220517205737 88 208 1.0 1.0 0.00 0.00 0.00 53 1005.8
20220517205237 89 196 1.0 2.0 0.00 0.00 0.00 54 1005.5
20220517204736 89 159 3.0 3.0 0.00 0.00 0.00 54 1005.9
20220517204234 90 197 1.0 2.0 0.00 0.00 0.00 54 1006.2
20220517203734 89 178 2.0 3.0 0.00 0.00 0.00 54 1006.1
20220517203232 89 191 3.0 5.0 0.00 0.00 0.00 53 1006.1
20220517202732 89 194 3.0 3.0 0.00 0.00 0.00 55 1006.2
20220517202231 89 157 3.0 3.0 0.00 0.00 0.00 53 1006.0
20220517201729 89 250 3.0 3.0 0.00 0.00 0.00 54 1006.2
20220517201228 89 166 2.0 2.0 0.00 0.00 0.00 56 1006.4
20220517200729 89 170 1.0 1.0 0.00 0.00 0.00 55 1006.4
20220517200227 89 171 1.0 2.0 0.00 0.00 0.00 57 1006.5
20220517195727 89 235 3.0 5.0 0.00 0.00 0.00 57 1006.5
20220517195226 89 185 4.0 6.0 0.00 0.00 0.00 56 1006.7
20220517194724 88 163 3.0 5.0 0.00 0.00 0.00 58 1006.9
20220517194223 88 183 4.0 7.0 0.00 0.00 0.00 57 1007.1
20220517193719 89 244 2.0 2.0 0.00 0.00 0.00 57 1006.9
20220517193217 89 179 3.0 6.0 0.00 0.00 0.00 57 1007.0
20220517192716 88 148 7.0 9.0 0.00 0.00 0.00 57 1007.1
20220517192216 89 185 3.0 3.0 0.00 0.00 0.00 56 1007.1
20220517191711 89 136 3.0 3.0 0.00 0.00 0.00 56 1007.3
20220517191036 89 109 3.0 3.0 0.00 0.00 0.00 57 1007.5
20220517190535 89 137 2.0 5.0 0.00 0.00 0.00 57 1007.5
20220517190035 88 237 3.0 3.0 0.00 0.00 0.00 59 1007.6
20220517185533 87 168 2.0 2.0 0.00 0.00 0.00 59 1007.6
20220517185031 87 164 2.0 3.0 0.00 0.00 0.00 60 1007.7
20220517184530 88 276 2.0 3.0 0.00 0.00 0.00 59 1007.7
20220517184029 89 198 2.0 2.0 0.00 0.00 0.00 57 1008.0
20220517183527 88 139 1.0 2.0 0.00 0.00 0.00 58 1008.2
20220517183025 90 258 1.0 1.0 0.00 0.00 0.00 58 1008.1
20220517182524 89 210 1.0 1.0 0.00 0.00 0.00 58 1008.3
20220517182022 89 197 2.0 2.0 0.00 0.00 0.00 59 1008.3
20220517181521 89 171 0.0 0.0 0.00 0.00 0.00 59 1008.5
20220517181019 89 161 2.0 2.0 0.00 0.00 0.00 56 1008.5
20220517180519 87 175 3.0 3.0 0.00 0.00 0.00 59 1008.4
20220517180018 88 178 2.0 2.0 0.00 0.00 0.00 61 1008.4
20220517175518 89 217 1.0 1.0 0.00 0.00 0.00 62 1008.5
20220517175018 86 205 0.0 1.0 0.00 0.00 0.00 64 1008.4
20220517174517 87 172 1.0 2.0 0.00 0.00 0.00 62 1008.3
20220517174015 87 201 0.0 0.0 0.00 0.00 0.00 64 1008.2
20220517173513 86 151 1.0 2.0 0.00 0.00 0.00 63 1008.4
20220517173013 86 186 0.0 0.0 0.00 0.00 0.00 62 1008.4
20220517172512 85 171 1.0 2.0 0.00 0.00 0.00 64 1008.4
20220517172010 83 146 2.0 3.0 0.00 0.00 0.00 68 1008.4
20220517171509 83 151 0.0 0.0 0.00 0.00 0.00 67 1008.1
20220517171009 83 127 2.0 2.0 0.00 0.00 0.00 68 1008.2
20220517170508 84 184 3.0 5.0 0.00 0.00 0.00 66 1008.2
20220517170007 85 203 1.0 2.0 0.00 0.00 0.00 64 1008.6
20220517165507 85 205 1.0 2.0 0.00 0.00 0.00 65 1008.5